Location: *
(43.9900°N, 3.4811°E)
Time: 10:38:45
(UTC+00:00)

MetOp-B - Pass Details

Date: 25 August 2019
Orbit: 819 x 822 km, 98.7° (Epoch: 14 September)

Event Time Altitude Azimuth Distance (km) Brightness Sun altitude
Exits shadow 20:47:46 36° 176° (S) 1,272 4.8 -21.8°
Maximum altitude 20:50:00 78° 256° (WSW) 844 4.2 -22.1°
Drops below altitude 10° 20:55:23 10° 343° (NNW) 2,425 7.4 -22.8°
Sets 20:57:45 0° 345° (NNW) 3,362 8.3 -23.1°
